Wind_Speed
66 63 61 57 54 51 47 44 41 38 34 32 30 27 24 23 21 21 20 20 20 17 18 24 24 24 24 24 20 18 15 15 17 18 16 17 21 21 19 17 17 17 20 14 15 14 12
68 65 63 60 56 54 50 47 44 41 37 35 33 30 28 24 24 22 22 23 22 18 18 23 24 25 24 28 24 21 17 17 17 17 17 18 22 24 24 20 20 20 18 17 15 16 14
70 68 65 63 59 56 53 49 46 43 40 37 35 33 31 27 26 25 24 26 24 20 21 22 24 25 28 27 26 23 22 19 18 18 19 19 21 24 25 26 22 22 20 18 20 19 16
72 71 67 65 61 59 55 52 48 45 42 41 37 36 33 30 29 28 27 27 29 23 23 22 25 25 27 25 26 24 24 21 19 20 20 21 21 23 24 28 26 25 23 21 23 20 19
74 73 69 67 64 61 57 54 50 47 45 43 40 38 36 34 32 31 30 30 32 29 26 25 24 27 29 26 27 28 23 26 21 19 20 21 20 21 22 25 27 27 25 23 23 22 21
76 74 71 68 66 63 60 57 53 50 48 45 43 41 39 38 34 34 32 31 33 32 31 26 26 28 31 28 26 28 23 23 23 16 20 21 19 18 18 22 25 27 25 23 24 25 21
78 76 74 71 68 65 63 59 55 53 50 47 46 44 42 40 37 37 35 32 35 35 33 30 29 29 33 31 29 28 21 19 20 20 19 20 17 15 24 22 21 21 22 22 23 25 21
80 78 75 73 71 68 64 62 58 56 53 51 49 47 45 42 40 40 37 36 37 39 35 34 32 33 33 28 29 27 22 18 21 20 18 19 14 24 24 16 18 20 21 21 25 26 23
82 80 77 75 72 71 67 64 61 59 56 53 52 49 47 45 43 43 39 40 41 42 44 33 35 36 35 28 29 25 22 18 17 17 16 18 20 22 19 17 20 23 22 24 24 25 24
87 83 78 74 73 72 70 66 63 62 58 56 55 52 49 48 45 40 41 41 43 43 50 43 39 35 34 30 26 24 20 16 19 17 15 17 21 19 18 16 20 20 22 23 24 22 23
88 84 79 77 80 76 70 69 66 64 59 59 57 54 51 51 49 45 47 48 48 48 53 54 41 34 31 30 27 25 23 23 19 19 17 16 17 20 19 19 20 18 20 21 23 24 23
91 84 82 81 82 79 72 71 68 66 62 63 61 57 54 54 51 50 50 52 50 52 62 56 47 34 31 32 30 27 26 25 23 21 23 22 19 19 23 24 22 21 21 23 26 28 29
95 86 83 85 82 79 73 73 72 67 62 60 61 59 57 55 58 55 53 53 54 59 59 58 47 34 30 31 32 33 33 27 27 26 24 27 23 21 24 26 25 23 24 28 30 30 31
87 96 86 88 83 76 68 71 69 65 60 60 64 65 61 59 63 60 58 57 60 61 62 58 51 39 40 39 40 39 36 30 27 29 29 26 23 25 25 27 29 30 28 30 35 35 34
79 97 93 86 90 86 90 77 78 76 76 69 68 65 65 61 63 63 61 64 66 66 69 59 51 51 46 42 42 39 39 35 30 29 31 33 26 26 29 30 32 32 33 34 39 38 40
70 80 93 88 100 94 97 95 85 79 82 77 73 73 70 61 66 65 67 68 69 69 67 60 55 55 48 42 44 41 40 40 35 32 32 37 37 27 28 35 36 35 35 36 36 41 43
64 75 84 70 87 86 91 81 88 85 76 70 77 78 71 68 70 71 74 70 68 65 65 62 57 53 51 47 45 44 45 47 44 39 39 41 41 35 33 35 36 39 39 40 39 42 44
64 65 81 93 76 80 74 79 77 89 92 75 59 79 79 76 78 81 73 78 70 62 61 61 58 51 48 48 48 48 47 48 47 41 39 40 45 45 39 38 39 42 42 42 45 43 47
70 62 73 75 82 80 86 88 79 70 78 80 86 89 79 80 75 70 76 74 74 70 67 57 55 47 42 46 50 51 45 46 48 46 41 39 47 50 48 43 39 39 39 40 44 50 54
77 72 69 66 69 74 79 79 88 92 78 72 73 79 79 74 71 69 70 63 59 58 60 57 53 53 49 50 47 50 50 45 45 48 48 46 48 49 52 49 50 48 47 47 51 56 55
89 82 76 79 68 64 69 67 75 72 64 76 69 77 85 73 80 74 70 60 60 59 59 56 56 55 54 54 49 50 50 44 44 47 52 52 53 47 50 54 55 57 54 56 57 55 60
74 88 95 87 84 73 72 82 77 69 71 72 79 65 74 80 84 77 72 69 66 63 61 57 57 57 55 55 59 50 47 48 53 46 43 49 51 49 50 50 50 59 58 66 63 61 63
71 71 76 82 86 88 87 92 93 86 93 92 87 81 67 69 58 70 73 69 69 66 67 66 62 62 61 54 55 52 53 55 57 57 57 55 57 56 58 58 57 60 55 64 65 63 58
66 69 72 74 81 84 89 88 86 83 85 88 87 77 74 69 65 60 59 64 67 68 62 64 67 62 57 57 55 58 60 62 62 58 62 61 62 69 70 65 70 60 57 60 62 55 52
69 69 72 71 76 82 87 85 84 84 77 74 77 76 78 75 78 75 71 65 64 63 67 69 65 60 61 64 62 64 66 67 66 65 66 71 69 68 65 67 73 68 68 61 61 61 53
53 60 66 74 78 77 79 80 78 77 77 79 81 78 78 77 76 73 73 68 64 64 67 58 58 60 64 70 72 73 76 77 74 68 64 60 54 55 60 61 68 67 59 55 61 59 52
41 49 59 69 74 79 84 83 82 80 78 79 81 79 77 78 75 73 71 68 69 69 73 75 73 72 75 74 76 79 80 80 79 79 71 67 62 61 57 61 63 54 55 58 59 55 57
32 39 49 65 74 81 84 86 89 89 87 87 84 79 79 80 80 79 78 76 76 81 86 83 76 78 81 81 84 85 82 81 75 76 77 69 65 67 62 58 61 55 57 61 55 60 61
33 41 47 48 68 83 85 89 90 91 94 94 91 87 84 84 82 83 82 85 87 88 82 88 86 83 82 84 87 87 83 81 79 74 71 71 67 64 65 66 64 63 61 65 65 66 62
Wind_Direction
223 223 223 223 225 225 225 227 231 231 233 236 239 241 242 250 256 262 269 280 292 303 313 320 325 330 334 330 326 314 290 283 278 276 271 253 252 256 249 242 244 242 253 262 250 261 256
223 223 224 224 224 226 226 227 229 233 233 235 240 243 246 248 256 260 269 272 284 294 303 310 313 318 320 328 327 313 300 280 276 275 275 260 252 252 254 248 247 250 257 266 267 275 289
223 224 224 226 225 226 226 228 229 232 235 236 239 244 246 250 256 259 263 266 273 286 291 301 302 318 314 321 327 316 307 289 276 274 276 268 257 252 254 256 254 251 252 264 277 279 290
225 224 224 226 225 227 228 228 230 233 234 238 240 244 248 251 254 258 260 265 269 275 282 291 295 311 314 313 327 322 309 296 284 270 267 268 262 260 252 255 256 256 254 254 261 275 286
225 226 225 226 226 227 229 230 231 232 235 238 241 245 248 250 253 257 259 263 269 271 278 287 286 299 309 309 314 323 308 298 291 269 264 268 263 259 254 255 258 258 258 254 258 266 272
226 226 225 226 228 228 229 231 231 234 236 237 241 244 247 250 254 257 258 261 268 271 277 280 287 297 302 303 316 318 313 289 286 281 264 269 264 262 257 251 251 255 259 260 256 260 266
226 226 226 226 228 229 230 231 233 234 236 237 241 243 247 249 252 255 258 261 264 267 272 276 286 299 300 307 307 312 313 285 281 281 266 264 264 261 248 249 257 258 256 257 262 264 261
226 226 227 228 228 229 230 232 233 234 236 239 240 243 246 249 251 253 256 261 262 267 266 275 278 295 293 298 304 312 312 293 285 283 270 270 255 247 261 258 257 256 258 259 261 262 257
224 225 226 228 229 230 231 231 233 234 237 239 241 243 245 248 250 254 255 260 259 265 270 265 277 291 290 294 300 305 302 291 287 285 273 267 257 259 259 255 254 254 255 258 260 260 265
224 224 224 228 231 230 231 232 233 235 237 239 241 243 244 246 247 252 257 257 261 265 272 272 268 282 281 284 291 296 290 286 293 294 280 264 262 257 256 255 254 255 260 264 266 265 282
221 221 224 228 230 230 230 233 233 234 236 239 241 243 244 245 245 249 258 261 260 264 271 278 274 278 279 278 282 288 288 282 282 289 280 268 265 265 264 253 254 252 253 258 262 269 271
221 220 223 226 227 228 229 235 235 234 234 239 240 240 243 247 243 250 255 255 255 263 267 271 276 276 278 274 279 281 285 286 279 277 276 271 270 271 264 261 259 253 256 257 260 267 267
216 219 221 224 226 227 226 231 233 233 233 235 242 241 243 246 247 248 250 251 253 258 269 275 274 276 275 278 277 282 280 284 284 279 271 268 267 270 266 266 264 260 259 262 265 266 269
211 217 220 222 219 225 226 228 225 228 231 237 243 245 245 246 247 246 247 247 251 263 268 276 274 272 274 273 276 276 275 275 277 279 276 275 273 269 269 268 266 264 262 265 271 267 268
217 219 219 221 223 225 228 225 230 234 234 235 240 237 239 240 245 246 245 242 258 265 270 269 271 271 274 271 274 272 272 269 274 278 278 274 274 276 267 264 264 268 268 269 272 276 276
212 217 219 214 226 231 231 232 233 234 234 234 236 237 236 239 244 242 242 251 258 263 268 265 268 268 270 261 266 272 272 271 272 274 274 272 275 271 270 261 258 263 263 264 272 278 279
215 221 223 223 220 221 230 231 231 230 231 234 239 241 239 241 242 241 249 258 263 264 266 263 267 266 265 255 263 266 272 268 267 273 271 271 269 271 264 266 266 261 265 266 263 265 278
209 216 222 221 219 223 223 235 230 232 231 230 231 242 244 237 243 253 253 255 261 263 264 261 264 261 258 261 262 263 271 271 266 266 263 268 271 268 269 261 259 264 266 266 267 273 273
217 213 218 225 232 235 232 230 231 221 227 230 235 241 241 242 245 245 253 255 258 260 256 257 261 255 258 260 261 264 273 270 264 261 259 264 263 268 266 263 263 261 264 266 266 267 269
226 215 216 217 217 223 223 224 226 227 222 225 226 233 235 236 233 234 252 250 251 247 252 253 252 256 257 254 259 265 275 269 265 263 264 262 260 259 265 271 266 263 261 260 258 262 268
242 235 221 217 217 217 216 213 217 221 228 225 229 225 221 233 234 234 238 246 251 246 245 249 250 256 263 266 267 264 281 266 272 264 258 255 257 262 260 265 268 268 267 267 264 266 267
246 251 244 242 242 232 231 241 242 229 229 237 249 249 237 232 229 242 235 242 246 249 250 247 254 260 261 266 268 271 270 267 273 263 252 248 253 260 263 269 274 266 266 266 268 275 282
244 246 248 251 255 249 249 250 254 256 254 259 254 257 256 242 238 233 236 235 242 252 249 249 255 260 260 268 267 275 266 267 269 266 258 260 254 259 264 269 276 270 268 268 271 278 283
246 246 245 243 242 246 250 252 256 255 257 261 265 264 258 252 249 244 242 243 245 246 249 254 256 254 263 269 269 270 269 268 268 268 264 262 263 262 267 268 269 274 272 270 272 276 278
247 245 244 243 242 243 244 248 250 249 250 246 252 253 258 255 259 257 256 257 255 259 256 254 256 258 262 264 266 267 268 270 269 269 273 269 266 265 267 267 270 265 270 274 273 270 274
237 244 247 247 244 243 243 243 244 243 242 236 245 246 243 251 254 260 260 258 252 257 245 250 256 256 262 264 264 261 266 272 270 272 272 264 260 267 268 267 267 271 271 269 270 272 273
236 234 235 236 239 243 243 241 241 240 237 236 239 242 242 243 245 245 243 247 246 248 250 254 254 254 256 259 258 261 263 264 263 266 266 266 265 265 270 269 273 275 271 269 269 283 279
251 248 246 243 236 232 232 235 237 237 238 235 236 238 238 239 237 238 237 239 243 240 244 251 248 246 251 254 254 255 255 259 261 262 264 263 263 263 264 266 266 272 272 272 274 276 278
270 268 269 268 237 232 230 228 230 232 235 235 235 234 236 235 236 238 239 236 238 241 241 241 244 247 252 253 252 254 255 257 257 256 255 257 261 266 266 270 272 273 273 275 275 278 280
Height
5767 5773 5780 5784 5792 5797 5801 5806 5813 5815 5820 5823 5826 5828 5829 5831 5832 5834 5835 5836 5837 5837 5836 5834 5833 5832 5831 5830 5829 5828 5828 5826 5825 5825 5825 5825 5825 5825 5828 5828 5829 5830 5830 5831 5830 5831 5832
5756 5763 5770 5777 5782 5789 5793 5798 5803 5809 5813 5816 5820 5823 5824 5825 5828 5829 5830 5832 5832 5833 5833 5832 5830 5829 5829 5828 5826 5824 5823 5822 5821 5821 5821 5821 5820 5822 5823 5825 5825 5827 5828 5828 5828 5827 5829
5745 5753 5759 5768 5773 5780 5785 5790 5794 5800 5806 5809 5812 5816 5819 5820 5823 5824 5825 5826 5827 5829 5828 5829 5828 5826 5825 5825 5823 5821 5819 5818 5818 5817 5817 5816 5816 5817 5819 5818 5822 5822 5824 5824 5823 5823 5826
5733 5742 5748 5757 5763 5771 5776 5781 5787 5792 5797 5803 5806 5809 5813 5815 5816 5819 5819 5820 5822 5824 5824 5824 5824 5823 5822 5821 5820 5818 5815 5814 5814 5813 5812 5812 5812 5812 5815 5815 5816 5818 5820 5821 5820 5821 5822
5720 5731 5737 5745 5753 5760 5767 5773 5778 5783 5788 5793 5798 5802 5806 5808 5810 5812 5814 5815 5816 5818 5818 5819 5820 5819 5819 5818 5816 5814 5812 5809 5808 5809 5808 5807 5808 5808 5810 5811 5812 5813 5815 5817 5817 5818 5819
5708 5718 5726 5734 5743 5749 5756 5763 5768 5775 5780 5784 5789 5794 5797 5801 5803 5806 5807 5809 5810 5812 5814 5813 5814 5817 5813 5814 5813 5809 5808 5805 5803 5804 5804 5803 5804 5805 5806 5806 5807 5808 5810 5811 5812 5813 5814
5694 5705 5713 5722 5731 5739 5746 5753 5759 5765 5771 5775 5780 5784 5789 5792 5795 5799 5801 5802 5806 5806 5808 5808 5808 5811 5808 5808 5807 5806 5803 5801 5799 5799 5799 5799 5801 5802 5798 5801 5802 5804 5805 5806 5807 5807 5809
5679 5691 5700 5710 5718 5728 5735 5742 5748 5755 5760 5766 5770 5775 5780 5784 5787 5790 5792 5794 5797 5798 5801 5802 5803 5804 5803 5804 5802 5801 5799 5798 5796 5795 5795 5796 5798 5794 5795 5798 5799 5800 5801 5801 5800 5801 5801
5664 5676 5686 5697 5707 5716 5723 5731 5737 5744 5750 5755 5761 5765 5771 5775 5778 5781 5784 5787 5789 5789 5789 5799 5797 5796 5797 5799 5796 5797 5795 5793 5792 5791 5791 5793 5793 5792 5793 5793 5795 5795 5797 5796 5796 5796 5797
5649 5660 5671 5683 5693 5703 5711 5719 5726 5733 5739 5745 5750 5755 5761 5765 5771 5772 5775 5778 5780 5782 5779 5789 5792 5794 5792 5793 5793 5792 5790 5790 5789 5789 5788 5789 5789 5789 5788 5790 5790 5792 5792 5793 5793 5792 5792
5631 5644 5655 5667 5680 5690 5698 5706 5714 5721 5727 5734 5740 5745 5750 5756 5760 5761 5766 5769 5772 5775 5769 5769 5783 5788 5786 5788 5788 5788 5786 5785 5785 5785 5785 5786 5786 5786 5786 5785 5785 5788 5787 5787 5787 5787 5787
5616 5628 5640 5652 5664 5674 5683 5693 5702 5709 5714 5722 5728 5734 5740 5746 5749 5750 5755 5759 5763 5765 5753 5761 5771 5780 5782 5780 5781 5781 5780 5780 5780 5781 5780 5780 5781 5783 5781 5781 5782 5782 5782 5782 5781 5780 5780
5598 5612 5623 5638 5650 5661 5668 5680 5689 5696 5702 5709 5716 5722 5729 5733 5737 5740 5743 5748 5752 5747 5748 5752 5764 5772 5774 5773 5774 5774 5774 5774 5773 5774 5776 5773 5776 5777 5777 5777 5777 5778 5777 5775 5774 5773 5774
5574 5593 5610 5623 5635 5646 5655 5666 5675 5683 5688 5695 5703 5708 5716 5721 5723 5727 5731 5736 5736 5735 5742 5746 5753 5763 5765 5766 5767 5765 5765 5767 5767 5767 5768 5769 5772 5772 5773 5772 5771 5770 5772 5770 5765 5765 5766
5566 5579 5596 5609 5617 5629 5641 5650 5661 5668 5675 5680 5687 5693 5702 5707 5710 5713 5718 5719 5723 5728 5729 5738 5747 5750 5755 5756 5756 5756 5756 5758 5760 5760 5762 5761 5765 5764 5765 5764 5765 5765 5766 5767 5761 5760 5756
5552 5568 5579 5591 5601 5616 5625 5635 5646 5654 5660 5665 5670 5679 5687 5693 5695 5697 5701 5706 5710 5714 5718 5729 5734 5738 5742 5746 5745 5747 5747 5749 5752 5753 5752 5751 5751 5758 5758 5755 5755 5756 5757 5758 5758 5752 5747
5540 5553 5566 5576 5589 5600 5606 5619 5628 5639 5645 5652 5654 5658 5674 5679 5675 5679 5685 5690 5698 5704 5711 5717 5722 5725 5728 5732 5736 5736 5735 5737 5741 5745 5745 5741 5741 5747 5748 5748 5749 5748 5748 5749 5749 5745 5742
5527 5540 5553 5564 5575 5587 5595 5606 5615 5624 5633 5637 5644 5641 5652 5663 5658 5666 5673 5681 5689 5693 5699 5702 5706 5712 5714 5721 5724 5726 5725 5726 5728 5733 5734 5733 5730 5729 5735 5736 5737 5738 5738 5738 5737 5738 5733
5514 5525 5541 5552 5563 5572 5582 5593 5605 5612 5614 5622 5623 5628 5634 5639 5644 5651 5660 5665 5674 5679 5685 5689 5694 5699 5706 5707 5706 5709 5718 5717 5717 5719 5722 5725 5721 5717 5718 5725 5729 5729 5729 5728 5727 5723 5718
5500 5514 5525 5538 5549 5556 5565 5575 5588 5596 5604 5609 5608 5612 5617 5619 5631 5640 5645 5650 5655 5663 5669 5673 5682 5686 5688 5691 5697 5697 5701 5706 5708 5710 5712 5710 5710 5710 5710 5712 5714 5716 5718 5716 5712 5708 5711
5487 5499 5511 5521 5533 5545 5552 5557 5569 5577 5589 5590 5590 5593 5599 5604 5615 5628 5633 5639 5644 5647 5654 5658 5666 5673 5678 5681 5688 5688 5689 5692 5696 5697 5696 5697 5695 5699 5701 5700 5699 5700 5703 5699 5698 5700 5696
5478 5486 5496 5505 5517 5530 5536 5530 5552 5562 5566 5567 5571 5580 5587 5592 5603 5608 5615 5628 5633 5637 5640 5646 5654 5662 5665 5668 5674 5677 5678 5677 5680 5683 5683 5684 5684 5684 5684 5687 5687 5686 5688 5681 5682 5684 5682
5462 5471 5481 5490 5500 5512 5520 5527 5533 5540 5542 5542 5554 5564 5570 5578 5585 5591 5602 5620 5622 5625 5628 5635 5640 5645 5648 5659 5661 5660 5661 5662 5664 5667 5669 5671 5671 5670 5671 5673 5671 5669 5674 5670 5672 5672 5673
5447 5456 5465 5474 5485 5495 5503 5509 5514 5522 5524 5527 5534 5544 5553 5561 5568 5577 5594 5604 5607 5608 5619 5623 5625 5629 5643 5642 5640 5640 5642 5645 5648 5652 5654 5656 5657 5656 5656 5654 5648 5660 5661 5657 5655 5661 5658
5428 5437 5446 5455 5464 5472 5482 5489 5497 5505 5508 5512 5520 5525 5530 5541 5553 5564 5576 5586 5594 5594 5600 5604 5608 5617 5621 5624 5624 5622 5623 5625 5630 5636 5637 5640 5641 5637 5635 5634 5635 5644 5642 5647 5641 5646 5646
5412 5417 5427 5434 5442 5451 5460 5468 5476 5483 5490 5493 5500 5509 5518 5525 5531 5545 5553 5564 5572 5579 5584 5587 5595 5602 5605 5605 5605 5602 5604 5609 5611 5615 5624 5623 5625 5622 5620 5615 5616 5632 5629 5628 5623 5628 5635
5394 5399 5404 5411 5419 5428 5437 5446 5454 5463 5468 5473 5479 5493 5501 5507 5517 5526 5535 5544 5553 5561 5566 5573 5584 5588 5591 5590 5588 5586 5587 5591 5593 5601 5606 5606 5609 5607 5608 5600 5601 5617 5613 5610 5607 5622 5616
5381 5385 5388 5389 5390 5398 5410 5422 5432 5440 5447 5454 5467 5475 5480 5488 5499 5507 5516 5525 5535 5544 5548 5552 5563 5563 5570 5570 5570 5569 5570 5572 5576 5583 5588 5588 5590 5591 5591 5588 5587 5604 5600 5597 5600 5594 5596
5368 5367 5364 5361 5362 5371 5381 5391 5404 5414 5422 5430 5441 5453 5461 5465 5476 5484 5495 5507 5515 5523 5529 5532 5536 5545 5551 5550 5548 5552 5553 5556 5561 5563 5569 5568 5574 5576 5575 5573 5578 5580 5580 5577 5579 5579 5578